Regional Weather Roundup
Issued by NWS Upton, NY

Current Version | Previous Version | Text Only | Print | Product List | Glossary On
Versions: 1 2 3 4 5 6 7 8 9 10 11 12 13 14 15 16 17 18 19 20 21 22 23 24 25 26 27 28 29 30 31 32 33 34 35 36 37 38 39 40 41 42 43 44 45 46 47 48 49 50
000 ASUS41 KOKX 291618 RWROKX REGIONAL WEATHER ROUNDUP NATIONAL WEATHER SERVICE NEW YORK NY 1200 PM EDT FRI MAY 29 2015 NOTE: "FAIR" INDICATES FEW OR NO CLOUDS BELOW 12,000 FEET WITH NO SIGNIFICANT WEATHER AND/OR OBSTRUCTIONS TO VISIBILITY. NYZ071-072-176-178-NJZ106-104-291700- NEW YORK CITY METRO AREA CITY SKY/WX TMP DP RH WIND PRES REMARKS CENTRAL PARK SUNNY 79 53 40 VRB3 30.31F LAGUARDIA APRT MOSUNNY 75 55 49 NE9 30.28F KENNEDY INTL MOSUNNY 79 55 43 S12 30.29F NEWARK/LIBERTY MOSUNNY 80 53 39 VRB5 30.28F BRNX BOT. GARD N/A 75 54 46 S1 30.31S TETERBORO SUNNY 78 55 44 SE6 30.27F $$ NYZ177-179-078>081-291700- LONG ISLAND NEW YORK CITY SKY/WX TMP DP RH WIND PRES REMARKS FARMINGDALE SUNNY 77 56 48 W3 30.28F ISLIP MOSUNNY 78 56 46 VRB5 30.27F SHIRLEY SUNNY 78 57 48 SE8 30.29S WESTHAMPTON SUNNY 76 57 51 E7 30.30S MONTAUK POINT N/A 74 57 55 VRB6 30.30F $$ NYZ052-065-067-291700- HUDSON VALLEY CITY SKY/WX TMP DP RH WIND PRES REMARKS WHITE PLAINS MOSUNNY 75 58 55 S12 30.29S NEWBURGH SUNNY 73 59 60 CALM 30.31S MONTGOMERY SUNNY 75 58 55 VRB3 30.29F POUGHKEEPSIE SUNNY 76 57 51 W3 30.28F ALBANY MOSUNNY 77 55 46 VRB3 30.28F $$ NJZ001-105-106-008-010-013-015-019>022-104-291700- NEW JERSEY CITY SKY/WX TMP DP RH WIND PRES REMARKS NEWARK/LIBERTY MOSUNNY 80 53 39 VRB5 30.28F TETERBORO SUNNY 78 55 44 SE6 30.27F CALDWELL SUNNY 78 55 44 CALM 30.28F MORRISTOWN SUNNY 79 52 38 E3 30.29F SOMERVILLE SUNNY 80 56 43 S6 30.26F SUSSEX SUNNY 76 57 51 CALM 30.30F ANDOVER N/A 76 56 49 VRB3 30.29F TRENTON SUNNY 78 56 46 S5 30.27F MILLVILLE SUNNY 80 61 52 VRB3 30.27F ATLANTIC CITY SUNNY 79 58 48 E7 30.28F WRIGHTSTOWN SUNNY 81 59 47 VRB6 30.25F TOMS RIVER SUNNY N/A N/A N/A E8 30.29S BELMAR SUNNY 73 54 49 SE9 30.30S $$ PAZ047>061-062-071-291700- EASTERN PENNSYLVANIA CITY SKY/WX TMP DP RH WIND PRES REMARKS PHILADELPHIA MOSUNNY 81 58 45 E6 30.28F ALLENTOWN SUNNY 80 54 40 CALM 30.28F SCRANTON SUNNY 78 55 44 VRB6 30.28F $$ CTZ002-004>006-009-010-012-RIZ004-006-007-MAZ004-011-015-291700- SOUTHERN NEW ENGLAND IN CT CITY SKY/WX TMP DP RH WIND PRES REMARKS BRADLEY INTL MOSUNNY 76 58 53 SW5 30.28F HARTFORD SUNNY 76 57 51 SE10 30.27F DANBURY SUNNY 75 55 49 N5 30.30F WTRBRY/OXFORD MOSUNNY 75 57 53 VRB6 30.31F BRIDGEPORT SUNNY 73 58 59 SE9 30.29S MERIDEN SUNNY 79 56 45 E6 30.28F NEW HAVEN SUNNY 73 57 57 S10 30.29S CHESTER FAIR 75 55 50 CALM 30.29F GROTON SUNNY 72 58 61 S7 30.28S WILLIMANTIC MOSUNNY 78 56 46 VRB6 30.28F IN RI CITY SKY/WX TMP DP RH WIND PRES REMARKS PROVIDENCE MOSUNNY 78 57 48 CALM 30.28F BLOCK ISLAND SUNNY 70 57 64 E7 30.30S WESTERLY SUNNY 73 57 57 SE10 30.29S IN MA CITY SKY/WX TMP DP RH WIND PRES REMARKS BOSTON PTSUNNY 67 59 75 E12 30.31S WORCESTER MOSUNNY 75 56 51 MISG 30.31F WESTFIELD SUNNY 77 56 48 VRB5 30.28F PROVINCETOWN PTSUNNY 63 55 77 NE12 30.32R NANTUCKET SUNNY 75 60 59 N5 30.28F $$ ANZ330-335-338-340-345-350-353-355-291700- COASTAL MARINE OBSERVATIONS STATION/POSITION TIME SKY/WX TEMP WIND PRES VSBY WAVE AIR SEA DIR/SP/G HT/PER (UTC) (F) (DEG/KT/KT) (MB) (MI) (FT/S) NY HARB ENTRANCE 1550 66 60 110/ 2/ 4 1025.5 2/ 8 4S FIRE IS 1503 60 N/A 2/ 8 20S FIRE ISLAND 1550 61 60 50/ 4/ 4 1025.8 2/ 8 GREAT SOUTH BAY 1515 69 70 160/ 6/ 8 N/A 23SW MTP 1550 58 56 20/ 8/ 8 1025.4 2/ 7 HUDSON CANYON NOT AVBL KINGS POINT 1500 68 54 20/ 8/ 10 1025.3 CENTRAL LI SOUND 1500 65 59 210/ 2/ 4 N/A EASTERN LI SOUND 1500 62 220/ 4/ 4 N/A ROBBINS REEF 1500 71 10/ 5/ 5 1024.6 $$ >>>>>>>>>>>>>>>>>>>>>>>>>>>> KEY <<<<<<<<<<<<<<<<<<<<<<<<<<< > < > SKY/WX - SKY CONDITION/PRESENT WEATHER < > TMP - TEMPERATURE IN FAHRENHEIT < > DP - DEWPOINT IN FAHRENHEIT < > RH - RELATIVE HUMIDITY IN PERCENT < > WIND - DIRECTION AND SPEED IN MPH < > PRES - MEAN SEA LEVEL PRESSURE IN INCHES OF HG < > WCI - WIND CHILL INDEX < > VSB - VISIBILITY IN MILES < > HX - HEAT INDEX < > TC - TEMPERATURE IN CELSIUS < > VRB - VARIABLE WIND DIRECTION < > < >>>>>>>>>>>>>>>>>>>>>>>>>>>> KEY <<<<<<<<<<<<<<<<<<<<<<<<<<<

USA.gov is the U.S. government's official web portal to all federal, state and local government web resources and services.